Location: Foulognes
(49.1413°N, 0.8183°W)
Time: 22:22:59
(UTC+00:00)

STARLINK-78 - Pass Details

Date: 21 October 2019
Orbit: 549 x 551 km, 53.0° (Epoch: 15 November)

Event Time Altitude Azimuth Distance (km) Brightness Sun altitude
Rises 19:28:52 0° 289° (WNW) 2,720 8.5 -24.6°
Reaches altitude 10° 19:31:08 10° 293° (WNW) 1,826 7.3 -24.9°
Enters shadow 19:34:30 50° 329° (NNW) 709 4.3 -25.5°
